Location: Devore Heights
(34.2372°N, 117.4156°W)
Time: 01:30:50
(UTC+00:00)

Altair - Pass Details

Date: 18 September 2024
Orbit: 1501 x 1682 km, 47.2° (Epoch: 09 October)

Event Time Altitude Azimuth Distance (km) Brightness Sun altitude
Exits shadow 10:27:33 54° 323° (NW) 1,970 7.9 -37.5°
Maximum altitude 10:28:14 54° 336° (NNW) 1,958 7.9 -37.4°
Drops below altitude 10° 10:38:10 10° 53° (NE) 3,948 10.4 -35.6°
Sets 10:41:29 0° 58° (ENE) 4,936 11.2 -35.1°
